Regional Weather Roundup
Issued by NWS

Home | Current Version | Previous Version | Graphics & Text | Print | Product List | Glossary Off
Versions: 1 2 3 4 5 6 7 8 9 10 11 12 13 14 15 16 17 18 19 20 21 22 23 24 25 26 27 28 29 30 31 32 33 34 35 36 37 38 39 40 41 42 43 44 45 46 47 48 49 50

000
ASUS45 KCYS 281610
RWRWY

WYOMING REGIONAL WEATHER ROUNDUP
NATIONAL WEATHER SERVICE CHEYENNE WY
900 AM MST SUN DEC 28 2014

NOTE:  "FAIR" INDICATES FEW OR NO CLOUDS BELOW 12,000 FEET
WITH NO SIGNIFICANT WEATHER AND/OR OBSTRUCTIONS TO VISIBILITY.

WYZ001-281700-
YELLOWSTONE NATIONAL PARK

CITY           SKY/WX    TMP DP  RH WIND       PRES   REMARKS
LK YELLOWSTONE   N/A     11   6  81 CALM      29.84R
W YELLOWSTONE  NOT AVBL

$$
WYZ002>013-054>058-071-098>099-281700-
NORTHERN WYOMING

CITY           SKY/WX    TMP DP  RH WIND       PRES   REMARKS
JACKSON        LGT SNOW  16  16 100 SW8       29.89S VSB 1   WCI   5
CODY           CLOUDY    23   7  50 NW5       29.82R WCI  17
GREYBULL       CLOUDY     5   2  87 SE3       29.92R
WORLAND        FAIR      -1  -6  79 CALM      29.89F
SHERIDAN       CLOUDY    14   8  77 NW7       29.86R WCI   4
BUFFALO        CLOUDY    23  10  57 W8        29.82R WCI  14
GILLETTE       CLOUDY    17  10  74 SE5       29.85R WCI  10
HULETT           N/A    N/A N/A N/A MISG        N/A
NEWCASTLE      FAIR      14  10  85 NW3       29.90R

$$
WYZ014>020-022>026-101>103-281700-
CENTRAL WYOMING

CITY           SKY/WX    TMP DP  RH WIND       PRES   REMARKS
BIG PINEY      LGT SNOW  -1  -6  79 E5        29.92F WCI -11
PINEDALE       LGT SNOW   7   3  85 CALM      29.92S VSB 3/4
DUBOIS         NOT AVBL
LANDER         FAIR       8  -1  66 S5        29.84S WCI   0
RIVERTON       FAIR      11   0  61 W12       29.85R WCI  -3
CASPER         PTSUNNY   21  11  65 SW20      29.85R WCI   6
DOUGLAS        CLOUDY    25  13  60 W9        29.86S WCI  15

$$
WYZ021-027>030-104>119-281700-
SOUTHERN WYOMING

CITY           SKY/WX    TMP DP  RH WIND       PRES   REMARKS
EVANSTON       CLOUDY    17  15  92 S18       29.94F WCI   1
FORT BRIDGER   FAIR      21  17  86 SW26G33   29.94S WCI   3
ROCK SPRINGS   LGT SNOW  16  12  84 SW7       29.94R VSB 1   WCI   6
DIXON          LGT SNOW  19  12  74 S14G20    30.04R VSB 1   WCI   5
RAWLINS        PTSUNNY   17   9  70 SW25G33   29.89R WCI  -1
SARATOGA       CLOUDY    19  10  68 S5        29.93S WCI  13
LARAMIE        PTSUNNY   16   7  67 SW17G24   29.86S WCI   0
CHEYENNE       FAIR      25   6  44 SW15G26   29.86F WCI  13
TORRINGTON     CLOUDY    20  12  71 SW3       29.91S
PINE BLUFFS    CLOUDY    19  10  68 CALM      29.93R

$$



USA.gov is the U.S. government's official web portal to all federal, state and local government web resources and services.